[[{"header":{"parameterUnit":"m.s-1","parameterCategory":2,"la1":30.2991,"la2":30.254,"lo1":-89.0895,"lo2":-89.0444,"dy":0.0017,"dx":0.0017,"nx":28,"ny":28,"refTime":"2025-08-05T03:00:00:Z","depth":"0","parameterNumber":2,"parameterNumberName":"U-component_of_CURRENTS"},"data":[0,0,0,0,0,0,0,0,0,0,0,0,0,0,0,0,0,0,0,0,0,0,0,0,0,0,0,0,0,0,0,0,0,0,0,0,0,0,0,0,0,0,0,0,0,0,0,0,0,0,0,0,0,0,0,0,0,0,-0.24,-0.24,0,-0.2428,-0.2428,-0.2428,-0.2394,-0.2393,-0.2392,-0.2391,-0.236,-0.236,-0.236,0,0,0,0,0,0,0,0,0,0,0,0,0,-0.2331,-0.2332,-0.24,-0.24,-0.2401,-0.2428,-0.2428,-0.2428,-0.2394,-0.2393,-0.2391,-0.239,-0.236,-0.236,-0.236,0,0,0,0,0,0,0,0,0,0,0,0,0,-0.2358,-0.2333,-0.24,-0.2389,-0.2388,-0.2428,-0.2428,-0.2428,-0.2394,-0.2393,-0.2391,-0.2389,-0.236,-0.236,-0.236,-0.2394,0,0,-0.2361,-0.2361,0,0,0,0,0,0,0,0,-0.2357,-0.236,-0.239,-0.239,-0.2389,-0.2408,-0.2393,-0.2415,-0.2395,-0.239,-0.2391,-0.2389,-0.2373,-0.2372,-0.2379,-0.2392,-0.2391,-0.2361,-0.2361,-0.2361,-0.2362,0,0,0,0,0,0,0,-0.2355,-0.2359,-0.2409,-0.2391,-0.239,-0.2387,-0.2389,-0.2397,-0.2387,-0.239,-0.2388,-0.2395,-0.2372,-0.2379,-0.2378,-0.2391,-0.2361,-0.2361,-0.2362,-0.2362,-0.2408,-0.2409,0,0,0,0,0,0,-0.2357,-0.2358,-0.2408,-0.241,-0.2371,-0.239,-0.2392,-0.2401,-0.2388,-0.2386,-0.2397,-0.2394,-0.2379,-0.2377,-0.2376,-0.2395,-0.2361,-0.2362,-0.2362,-0.2407,-0.2409,-0.241,0,0,0,0,0,0,-0.2356,-0.2361,-0.2407,-0.2385,-0.2391,-0.2393,-0.2404,-0.2403,-0.2402,-0.2394,-0.239,-0.2396,-0.2378,-0.2376,-0.2382,-0.2394,-0.2362,-0.2362,-0.2406,-0.2408,-0.2409,-0.2445,0,0,0,0,0,0,-0.2354,-0.2361,-0.2364,-0.2386,-0.2393,-0.243,-0.2406,-0.2405,-0.241,-0.2406,-0.2393,-0.2389,-0.2376,-0.2382,-0.2383,-0.2394,-0.2362,-0.2405,-0.2407,-0.2409,-0.2443,-0.2448,-0.2452,0,0,0,0,0,-0.2351,-0.2365,-0.2364,-0.237,-0.2398,-0.2431,-0.2434,-0.2428,-0.2412,-0.2419,-0.2409,-0.2388,-0.2395,-0.2384,-0.2384,-0.2395,-0.2404,-0.2406,-0.2409,-0.2441,-0.2447,-0.2452,0,0,0,0,0,0,-0.2335,-0.2364,-0.2362,-0.2384,-0.2405,-0.2426,-0.2432,-0.2432,-0.2432,-0.2422,-0.2405,-0.2402,-0.2412,-0.2404,-0.2392,-0.2416,-0.2395,-0.2398,-0.242,-0.2426,-0.243,-0.243,-0.2363,0,0,0,0,0,-0.2336,-0.235,-0.238,-0.2394,-0.2407,-0.242,-0.2429,-0.2432,-0.2439,-0.2436,-0.2429,-0.2423,-0.2427,-0.2425,-0.2428,-0.2444,-0.2421,-0.2452,-0.2456,-0.246,-0.2462,-0.2446,-0.2449,-0.2418,-0.2418,-0.2418,0,0,-0.2331,-0.235,-0.2356,-0.2391,-0.2404,-0.2433,-0.242,-0.2442,-0.246,-0.2435,-0.2446,-0.2441,-0.2437,-0.2452,-0.2456,-0.2443,-0.2456,-0.2464,-0.2467,-0.2466,-0.2449,-0.2452,-0.2454,-0.2419,-0.2419,-0.2419,0,0,-0.2337,-0.2349,-0.2366,-0.2392,-0.2422,-0.2438,-0.2446,-0.2471,-0.2472,-0.2494,-0.2478,-0.248,-0.2488,-0.2486,-0.2486,-0.2523,-0.2485,-0.2523,-0.2544,-0.2529,-0.2531,-0.2533,-0.2497,-0.2495,-0.2523,-0.2523,-0.2523,0,-0.2328,-0.2356,-0.2376,-0.2407,-0.2425,-0.2442,-0.2468,-0.2487,-0.2508,-0.251,-0.2499,-0.2509,-0.2505,-0.2519,-0.2533,-0.2532,-0.2509,-0.252,-0.2534,-0.2535,-0.2536,-0.2499,-0.2496,-0.2525,-0.2524,-0.2524,-0.2524,0,-0.2352,-0.2377,-0.2392,-0.2433,-0.2459,-0.2485,-0.2519,-0.2536,-0.2539,-0.2549,-0.256,-0.2558,-0.2556,-0.2563,-0.256,-0.2571,-0.2547,-0.2543,-0.2515,-0.2541,-0.2501,-0.2497,-0.2528,-0.2527,-0.2526,-0.2526,0,0,-0.2321,-0.2393,-0.2396,-0.2417,-0.2473,-0.2494,-0.2534,-0.2566,-0.2578,-0.2593,-0.2599,-0.2617,-0.2603,-0.2604,-0.2597,-0.2592,-0.2581,-0.2574,-0.2572,-0.2531,-0.253,-0.2446,-0.2434,-0.2576,-0.2576,-0.2576,-0.2494,0,-0.2327,-0.2381,-0.2419,-0.2463,-0.249,-0.2526,-0.256,-0.2591,-0.2608,-0.2622,-0.262,-0.2627,-0.2623,-0.2618,-0.2615,-0.2597,-0.2576,-0.2602,-0.2517,-0.2514,-0.2431,-0.2429,-0.2341,-0.2255,-0.2491,-0.249,-0.249,0,-0.2329,-0.2366,-0.241,-0.2471,-0.2485,-0.2514,-0.2555,-0.2592,-0.2625,-0.2636,-0.2642,-0.2641,-0.2644,-0.2632,-0.2599,-0.2615,-0.2574,-0.2552,-0.2548,-0.2455,-0.2425,-0.2271,-0.224,-0.2225,-0.2484,-0.2484,-0.2485,0,-0.2278,-0.2354,-0.2382,-0.2405,-0.2482,-0.2499,-0.2535,-0.2581,-0.2605,-0.2638,-0.2645,-0.2649,-0.264,-0.2612,-0.2571,-0.2584,-0.2517,-0.2524,-0.2402,-0.2395,-0.2296,-0.228,-0.2233,-0.2482,-0.2482,-0.2482,-0.2482,0,-0.226,-0.2281,-0.2358,-0.2373,-0.2402,-0.2467,-0.2494,-0.2535,-0.2582,-0.2597,-0.2639,-0.2635,-0.2635,-0.2601,-0.2565,-0.2463,-0.2503,-0.2397,-0.2369,-0.2304,-0.2291,-0.2254,-0.2281,-0.2479,-0.248,-0.248,-0.2481,0,-0.2192,-0.2248,-0.2283,-0.2358,-0.2377,-0.2393,-0.2465,-0.2483,-0.2545,-0.2564,-0.2572,-0.2613,-0.2568,-0.2542,-0.2486,-0.2434,-0.2315,-0.231,-0.2224,-0.2187,-0.2059,-0.2092,-0.2011,-0.1952,-0.2164,-0.2161,-0.2159,0,-0.216,-0.2171,-0.2247,-0.2259,-0.2288,-0.2328,-0.235,-0.244,-0.2466,-0.2535,-0.2531,-0.2519,-0.2474,-0.2368,-0.2283,-0.2177,-0.2195,-0.204,-0.2051,-0.2028,-0.2045,-0.2077,-0.2037,-0.193,-0.1926,-0.1923,-0.1921,0,-0.2085,-0.2112,-0.2137,-0.2168,-0.2192,-0.2227,-0.2272,-0.2289,-0.2383,-0.2404,-0.2405,-0.2377,-0.2293,-0.2156,-0.2041,-0.1973,-0.1997,-0.197,-0.1975,-0.1876,-0.188,-0.1817,-0.2006,-0.1893,-0.1896,-0.1898,-0.1899,-0.19,-0.2007,-0.2006,-0.2037,-0.2051,-0.2081,-0.2092,-0.2074,-0.2134,-0.2149,-0.215,-0.2217,-0.2149,-0.2075,-0.1896,-0.1821,-0.1692,-0.1761,-0.1654,-0.1698,-0.1734,-0.1671,-0.1783,-0.1626,-0.1627,-0.1628,-0.1629,-0.163,0,-0.1897,-0.1904,-0.1916,-0.1927,-0.1903,-0.1964,-0.1987,-0.1946,-0.191,-0.1956,-0.1929,-0.1871,-0.1727,-0.1676,-0.1551,-0.1464,-0.1437,-0.1438,-0.1483,-0.1455,-0.1564,-0.1546,-0.1329,-0.1329,-0.133,-0.133,-0.133,-0.133,-0.1838,-0.1803,-0.1811,-0.1733,-0.1734,-0.166,-0.1639,-0.1612,-0.1618,-0.157,-0.1573,-0.1588,-0.1567,-0.1621,-0.1482,-0.1393,-0.1372,-0.1319,-0.1349,-0.1461,-0.1486,-0.151,-0.1499,-0.1276,-0.1277,-0.1185,-0.1185,-0.1184]},{"header":{"parameterUnit":"m.s-1","parameterCategory":2,"la1":30.2991,"la2":30.254,"lo1":-89.0895,"lo2":-89.0444,"dy":0.0017,"dx":0.0017,"nx":28,"ny":28,"refTime":"2025-08-05T03:00:00:Z","depth":"0","parameterNumber":3,"parameterNumberName":"V-component_of_CURRENTS"},"data":[0,0,0,0,0,0,0,0,0,0,0,0,0,0,0,0,0,0,0,0,0,0,0,0,0,0,0,0,0,0,0,0,0,0,0,0,0,0,0,0,0,0,0,0,0,0,0,0,0,0,0,0,0,0,0,0,0,0,-0.0307,-0.0307,0,-0.0239,-0.0238,-0.0237,-0.0182,-0.0182,-0.0181,-0.0181,-0.007,-0.0067,-0.0065,0,0,0,0,0,0,0,0,0,0,0,0,0,-0.0343,-0.0343,-0.0307,-0.0306,-0.0306,-0.0239,-0.0238,-0.0237,-0.0182,-0.0182,-0.0181,-0.0181,-0.0071,-0.0068,-0.0065,0,0,0,0,0,0,0,0,0,0,0,0,0,-0.0305,-0.0343,-0.0307,-0.0272,-0.0268,-0.0239,-0.0238,-0.0237,-0.0182,-0.0182,-0.0181,-0.018,-0.0072,-0.0068,-0.0064,-0.0053,0,0,-0.0052,-0.0051,0,0,0,0,0,0,0,0,-0.0307,-0.0303,-0.0278,-0.0274,-0.027,-0.022,-0.021,-0.0174,-0.0182,-0.0213,-0.0181,-0.018,-0.0118,-0.011,-0.0097,-0.0048,-0.0043,-0.0052,-0.005,-0.0048,-0.0047,0,0,0,0,0,0,0,-0.031,-0.0306,-0.0279,-0.0277,-0.0272,-0.0243,-0.0237,-0.0203,-0.0168,-0.021,-0.0207,-0.0202,-0.0115,-0.0101,-0.0094,-0.0041,-0.0052,-0.0049,-0.0046,-0.0045,0.0038,0.0037,0,0,0,0,0,0,-0.0325,-0.0309,-0.0281,-0.0277,-0.0289,-0.0243,-0.0237,-0.0235,-0.0169,-0.0159,-0.0202,-0.02,-0.0108,-0.0098,-0.009,-0.007,-0.0048,-0.0044,-0.0042,0.0038,0.0038,0.0037,0,0,0,0,0,0,-0.0326,-0.0323,-0.0283,-0.0292,-0.0285,-0.0244,-0.0242,-0.0234,-0.022,-0.0164,-0.0152,-0.0196,-0.0107,-0.0095,-0.0061,-0.0066,-0.0043,-0.0039,0.0038,0.0038,0.0037,-0.0033,0,0,0,0,0,0,-0.0327,-0.0324,-0.0329,-0.0293,-0.0285,-0.0276,-0.0243,-0.0233,-0.0218,-0.0214,-0.0155,-0.0144,-0.0105,-0.0067,-0.0057,-0.006,-0.0036,0.0038,0.0038,0.0038,-0.0031,-0.0036,-0.004,0,0,0,0,0,-0.0329,-0.0344,-0.033,-0.0326,-0.0294,-0.0277,-0.027,-0.0237,-0.0219,-0.022,-0.0176,-0.0146,-0.0061,-0.0064,-0.0052,-0.0054,0.0038,0.0038,0.0038,-0.0029,-0.0035,-0.004,0,0,0,0,0,0,-0.0362,-0.0339,-0.0323,-0.0329,-0.0308,-0.0268,-0.0267,-0.0243,-0.0209,-0.0203,-0.0147,-0.0133,-0.0106,-0.007,-0.0075,-0.0031,-0.0006,-0.0004,-0.0061,-0.0066,-0.0071,-0.0081,-0.0033,0,0,0,0,0,-0.0373,-0.0376,-0.0347,-0.0351,-0.0344,-0.0306,-0.0295,-0.0273,-0.0239,-0.0223,-0.0182,-0.0136,-0.0099,-0.0075,-0.004,-0.0015,0.0031,-0.0008,-0.0013,-0.0017,-0.0017,0.0045,0.0045,0.0036,0.0036,0.0036,0,0,-0.0386,-0.0374,-0.0375,-0.0358,-0.0337,-0.0337,-0.0297,-0.0287,-0.0281,-0.0217,-0.0197,-0.0154,-0.0097,-0.0071,-0.0055,-0.004,0.001,-0.0017,-0.0022,-0.0019,0.0044,0.0045,0.0046,0.0036,0.0036,0.0036,0,0,-0.0422,-0.0405,-0.0422,-0.041,-0.0389,-0.0364,-0.0365,-0.033,-0.0308,-0.0285,-0.0236,-0.0196,-0.0143,-0.01,-0.0071,-0.0079,-0.0021,-0.007,-0.0097,-0.0037,-0.0036,-0.0034,0.0023,0.003,-0.0068,-0.0068,-0.0068,0,-0.044,-0.0454,-0.0424,-0.0437,-0.0432,-0.0381,-0.0396,-0.0369,-0.0326,-0.0305,-0.0289,-0.0199,-0.0155,-0.0108,-0.0112,-0.0089,-0.0047,-0.0083,-0.0044,-0.0041,-0.0038,0.002,0.0029,-0.0071,-0.0071,-0.0071,-0.007,0,-0.0488,-0.0497,-0.0506,-0.0504,-0.0493,-0.0497,-0.0459,-0.0441,-0.0407,-0.0369,-0.0321,-0.0257,-0.02,-0.0182,-0.0149,-0.0108,-0.0082,-0.0062,-0.0033,-0.0042,0.002,0.0031,-0.0076,-0.0075,-0.0074,-0.0073,0,0,-0.0531,-0.054,-0.0542,-0.0552,-0.0529,-0.0525,-0.0513,-0.0481,-0.0462,-0.0413,-0.0381,-0.0315,-0.0271,-0.0236,-0.0184,-0.0132,-0.0078,-0.0095,-0.009,-0.0044,0.0055,0.0091,0.0107,-0.0051,-0.005,-0.0049,0.0089,0,-0.0575,-0.0621,-0.0605,-0.0633,-0.065,-0.0602,-0.0594,-0.0554,-0.0503,-0.0459,-0.0379,-0.0331,-0.0293,-0.0264,-0.0208,-0.0107,-0.0052,-0.0117,0.0063,0.0068,0.0097,0.012,0.0157,0.0285,0.01,0.0102,0.0103,0,-0.0627,-0.0649,-0.0695,-0.0697,-0.0698,-0.0702,-0.0665,-0.0648,-0.0568,-0.0528,-0.0459,-0.039,-0.0305,-0.0274,-0.011,-0.0153,-0.006,0.0018,0.0026,0.0093,0.0124,0.0266,0.0312,0.0455,0.012,0.0119,0.0118,0,-0.0677,-0.0706,-0.0744,-0.0748,-0.0744,-0.0746,-0.0731,-0.067,-0.0647,-0.0564,-0.053,-0.042,-0.0351,-0.0232,-0.0073,-0.0089,0.0116,0.0118,0.0241,0.0245,0.033,0.0338,0.0531,0.0233,0.0233,0.0233,0.0232,0,-0.0734,-0.076,-0.0773,-0.0796,-0.0827,-0.0798,-0.0801,-0.0766,-0.0704,-0.0667,-0.057,-0.0507,-0.0336,-0.0198,-0.0073,0.0125,0.0121,0.0247,0.0287,0.0306,0.031,0.048,0.0528,0.0238,0.0237,0.0236,0.0235,0,-0.0786,-0.0796,-0.084,-0.0853,-0.0858,-0.0878,-0.0862,-0.0853,-0.0789,-0.0734,-0.071,-0.0553,-0.0368,-0.0191,0.0033,0.0139,0.0411,0.0382,0.039,0.0428,0.0651,0.0691,0.0921,0.1009,0.0534,0.0535,0.0537,0,-0.0818,-0.085,-0.0891,-0.092,-0.093,-0.095,-0.0958,-0.0907,-0.0887,-0.0754,-0.0729,-0.0537,-0.0388,-0.0052,0.0176,0.0417,0.0519,0.0584,0.0557,0.0684,0.076,0.0785,0.0844,0.0647,0.065,0.0652,0.0653,0,-0.0874,-0.0889,-0.0925,-0.0991,-0.1018,-0.1042,-0.1043,-0.104,-0.0955,-0.088,-0.0736,-0.06,-0.0264,0.0041,0.0351,0.0493,0.0693,0.0628,0.0773,0.0878,0.0909,0.1005,0.053,0.067,0.0668,0.0667,0.0666,0.0665,-0.0904,-0.0947,-0.0996,-0.1053,-0.1088,-0.1116,-0.1121,-0.1089,-0.1033,-0.0886,-0.0749,-0.0494,-0.0073,0.0376,0.0538,0.0893,0.085,0.0995,0.1039,0.1057,0.1131,0.0684,0.0854,0.0853,0.0853,0.0852,0.0852,0,-0.0935,-0.0986,-0.1051,-0.1112,-0.1155,-0.1158,-0.1158,-0.1119,-0.1037,-0.086,-0.0683,-0.0172,0.0238,0.0619,0.1096,0.1291,0.1332,0.1391,0.1448,0.1492,0.1124,0.1117,0.1336,0.1336,0.1336,0.1336,0.1336,0.1335,-0.0953,-0.1024,-0.1063,-0.1145,-0.1184,-0.1202,-0.1193,-0.1103,-0.0968,-0.0636,-0.0325,-0.0076,0.0469,0.1192,0.163,0.1674,0.1843,0.1833,0.1919,0.1668,0.1635,0.1602,0.161,0.1928,0.1929,0.2282,0.2286,0.2288]}],[{"header":{"parameterUnit":"m.s-1","parameterCategory":2,"la1":30.2991,"la2":30.254,"lo1":-89.0895,"lo2":-89.0444,"dy":0.0017,"dx":0.0017,"nx":28,"ny":28,"refTime":"2025-08-05T03:00:00:Z","depth":"2","parameterNumber":2,"parameterNumberName":"U-component_of_CURRENTS"},"data":[0,0,0,0,0,0,0,0,0,0,0,0,0,0,0,0,0,0,0,0,0,0,0,0,0,0,0,0,0,0,0,0,0,0,0,0,0,0,0,0,0,0,0,0,0,0,0,0,0,0,0,0,0,0,0,0,0,0,-0.2142,-0.2143,0,-0.2175,-0.2175,-0.2175,-0.2153,-0.2152,-0.2151,-0.215,-0.2136,-0.2137,-0.2137,0,0,0,0,0,0,0,0,0,0,0,0,0,-0.2074,-0.2075,-0.2142,-0.2143,-0.2143,-0.2175,-0.2175,-0.2175,-0.2153,-0.2152,-0.2151,-0.215,-0.2136,-0.2137,-0.2137,0,0,0,0,0,0,0,0,0,0,0,0,0,-0.2103,-0.2075,-0.2142,-0.2137,-0.2138,-0.2175,-0.2175,-0.2175,-0.2153,-0.2152,-0.2151,-0.215,-0.2136,-0.2137,-0.2137,-0.2166,0,0,-0.2139,-0.214,0,0,0,0,0,0,0,0,-0.2101,-0.2105,-0.2138,-0.2138,-0.2138,-0.216,-0.2146,-0.2171,-0.2154,-0.2145,-0.215,-0.2149,-0.2142,-0.2142,-0.2149,-0.2166,-0.2165,-0.2139,-0.214,-0.214,-0.214,0,0,0,0,0,0,0,-0.2099,-0.2104,-0.2153,-0.2138,-0.2139,-0.2138,-0.2141,-0.2151,-0.2148,-0.2146,-0.2145,-0.2152,-0.2142,-0.2149,-0.2149,-0.2165,-0.2139,-0.214,-0.214,-0.214,-0.2195,-0.2196,0,0,0,0,0,0,-0.21,-0.2102,-0.2152,-0.2154,-0.2118,-0.2141,-0.2143,-0.2153,-0.2149,-0.2148,-0.2153,-0.2151,-0.2148,-0.2148,-0.2148,-0.2175,-0.214,-0.2141,-0.2141,-0.2194,-0.2195,-0.2196,0,0,0,0,0,0,-0.2099,-0.2104,-0.2151,-0.213,-0.2136,-0.2143,-0.2154,-0.2154,-0.2158,-0.2155,-0.2153,-0.2156,-0.2147,-0.2147,-0.2159,-0.2174,-0.2141,-0.2141,-0.2193,-0.2194,-0.2196,-0.2233,0,0,0,0,0,0,-0.2096,-0.2104,-0.2108,-0.213,-0.2137,-0.2175,-0.2156,-0.2156,-0.2165,-0.2163,-0.2158,-0.2155,-0.2146,-0.2159,-0.216,-0.2174,-0.2142,-0.2191,-0.2193,-0.2195,-0.223,-0.2235,-0.224,0,0,0,0,0,-0.2094,-0.2108,-0.2108,-0.2114,-0.2144,-0.2176,-0.218,-0.2179,-0.2167,-0.2176,-0.2172,-0.2155,-0.2172,-0.216,-0.2162,-0.2176,-0.219,-0.2193,-0.2195,-0.2228,-0.2234,-0.224,0,0,0,0,0,0,-0.208,-0.2108,-0.2108,-0.2129,-0.2151,-0.2173,-0.2181,-0.2183,-0.2189,-0.2182,-0.2172,-0.217,-0.2187,-0.2181,-0.2168,-0.2199,-0.2178,-0.2181,-0.2202,-0.2208,-0.2213,-0.2211,-0.2142,0,0,0,0,0,-0.2081,-0.2095,-0.2124,-0.2139,-0.2151,-0.2167,-0.2178,-0.2183,-0.2194,-0.2194,-0.2193,-0.2193,-0.2201,-0.2202,-0.2209,-0.2229,-0.2208,-0.2239,-0.2244,-0.2248,-0.2248,-0.2237,-0.224,-0.2204,-0.2204,-0.2204,0,0,-0.2077,-0.2096,-0.2102,-0.2137,-0.215,-0.2179,-0.2169,-0.2192,-0.2212,-0.2193,-0.2212,-0.2211,-0.2211,-0.2231,-0.2238,-0.2225,-0.2246,-0.2251,-0.2254,-0.2252,-0.224,-0.2243,-0.2246,-0.2206,-0.2206,-0.2206,0,0,-0.2084,-0.2097,-0.2113,-0.2138,-0.2169,-0.2185,-0.2194,-0.2221,-0.2226,-0.2253,-0.2242,-0.225,-0.2265,-0.2267,-0.2269,-0.2307,-0.2274,-0.231,-0.233,-0.232,-0.2323,-0.2325,-0.2294,-0.2293,-0.231,-0.231,-0.231,0,-0.2078,-0.2104,-0.2123,-0.2152,-0.217,-0.219,-0.2216,-0.2236,-0.2263,-0.2268,-0.2261,-0.2282,-0.2282,-0.2301,-0.2315,-0.2317,-0.2298,-0.2307,-0.2325,-0.2327,-0.2328,-0.2296,-0.2295,-0.2312,-0.2312,-0.2312,-0.2312,0,-0.21,-0.2124,-0.2138,-0.2178,-0.2203,-0.2229,-0.2265,-0.2286,-0.2294,-0.2307,-0.2327,-0.233,-0.2336,-0.2345,-0.2343,-0.2359,-0.2336,-0.2333,-0.2307,-0.2334,-0.2299,-0.2296,-0.2315,-0.2315,-0.2314,-0.2313,0,0,-0.2073,-0.2139,-0.2143,-0.2163,-0.2218,-0.2239,-0.2281,-0.2316,-0.2333,-0.2354,-0.2367,-0.2391,-0.2383,-0.2386,-0.2383,-0.2381,-0.2376,-0.2364,-0.2363,-0.2327,-0.2336,-0.2252,-0.2241,-0.2373,-0.2373,-0.2373,-0.2304,0,-0.208,-0.2129,-0.2164,-0.2208,-0.2233,-0.2272,-0.2306,-0.2341,-0.2364,-0.2385,-0.239,-0.2404,-0.2402,-0.2402,-0.2403,-0.2388,-0.2372,-0.2394,-0.2321,-0.2319,-0.2236,-0.2237,-0.2087,-0.2007,-0.2302,-0.2301,-0.2301,0,-0.2082,-0.2116,-0.2157,-0.2216,-0.223,-0.226,-0.2307,-0.2345,-0.2386,-0.2401,-0.2416,-0.242,-0.243,-0.2419,-0.2395,-0.2408,-0.2374,-0.2355,-0.2352,-0.2259,-0.223,-0.2031,-0.1991,-0.2296,-0.2296,-0.2297,-0.2297,0,-0.2035,-0.2106,-0.2133,-0.2156,-0.223,-0.2249,-0.2286,-0.2337,-0.2363,-0.2405,-0.2416,-0.243,-0.2426,-0.2406,-0.2373,-0.2384,-0.233,-0.2336,-0.2222,-0.2215,-0.2064,-0.2044,-0.2303,-0.2303,-0.2303,-0.2303,-0.2303,0,-0.2018,-0.2039,-0.2112,-0.2127,-0.2157,-0.222,-0.2251,-0.2294,-0.2346,-0.2363,-0.2412,-0.2412,-0.2424,-0.2398,-0.2369,-0.2278,-0.232,-0.2216,-0.2191,-0.2072,-0.2054,-0.2292,-0.2291,-0.23,-0.2301,-0.2302,-0.2302,0,-0.1955,-0.2008,-0.204,-0.2113,-0.2133,-0.2151,-0.2223,-0.2242,-0.2309,-0.2332,-0.2342,-0.239,-0.2354,-0.2341,-0.2297,-0.2252,-0.219,-0.2143,-0.1993,-0.1951,-0.2082,-0.2085,-0.2011,-0.2007,-0.2004,-0.2002,-0.1999,0,-0.1925,-0.1935,-0.2007,-0.2018,-0.2046,-0.2089,-0.211,-0.22,-0.2224,-0.2301,-0.2296,-0.2296,-0.2254,-0.2167,-0.2092,-0.2001,-0.2085,-0.1818,-0.1814,-0.2069,-0.2052,-0.206,-0.2066,-0.1626,-0.1621,-0.1617,-0.1614,0,-0.1855,-0.188,-0.1904,-0.193,-0.1952,-0.1985,-0.2028,-0.2042,-0.2137,-0.2157,-0.2159,-0.2136,-0.2068,-0.1909,-0.1813,-0.1749,-0.1828,-0.1731,-0.2024,-0.1729,-0.1702,-0.1688,-0.1707,-0.1577,-0.1581,-0.1583,-0.1585,-0.1587,-0.1785,-0.1781,-0.1807,-0.1818,-0.1847,-0.185,-0.1829,-0.188,-0.1889,-0.1883,-0.1957,-0.1868,-0.1846,-0.1608,-0.1511,-0.144,-0.1567,-0.1507,-0.1522,-0.154,-0.1514,-0.1483,-0.1312,-0.1314,-0.1315,-0.1317,-0.1318,0,-0.1684,-0.1686,-0.1692,-0.1696,-0.167,-0.173,-0.1741,-0.169,-0.1642,-0.1663,-0.1634,-0.1446,-0.1339,-0.1321,-0.115,-0.1112,-0.1117,-0.107,-0.1088,-0.1124,-0.1156,-0.1113,-0.0803,-0.0801,-0.08,-0.0799,0,0,-0.163,-0.159,-0.1591,-0.1508,-0.1507,-0.1428,-0.1402,-0.1344,-0.1322,-0.1225,-0.1179,-0.1266,-0.1283,-0.1048,-0.0988,-0.0868,-0.0988,-0.0821,-0.1234,-0.1291,-0.1322,-0.1406,-0.138,0,0,0,0,0]},{"header":{"parameterUnit":"m.s-1","parameterCategory":2,"la1":30.2991,"la2":30.254,"lo1":-89.0895,"lo2":-89.0444,"dy":0.0017,"dx":0.0017,"nx":28,"ny":28,"refTime":"2025-08-05T03:00:00:Z","depth":"2","parameterNumber":3,"parameterNumberName":"V-component_of_CURRENTS"},"data":[0,0,0,0,0,0,0,0,0,0,0,0,0,0,0,0,0,0,0,0,0,0,0,0,0,0,0,0,0,0,0,0,0,0,0,0,0,0,0,0,0,0,0,0,0,0,0,0,0,0,0,0,0,0,0,0,0,0,-0.0236,-0.0236,0,-0.0175,-0.0174,-0.0174,-0.0125,-0.0124,-0.0124,-0.0124,-0.0022,-0.002,-0.0017,0,0,0,0,0,0,0,0,0,0,0,0,0,-0.0269,-0.0269,-0.0236,-0.0236,-0.0235,-0.0175,-0.0174,-0.0173,-0.0125,-0.0124,-0.0124,-0.0124,-0.0023,-0.002,-0.0017,0,0,0,0,0,0,0,0,0,0,0,0,0,-0.0235,-0.0269,-0.0237,-0.0205,-0.0202,-0.0176,-0.0174,-0.0173,-0.0125,-0.0124,-0.0124,-0.0123,-0.0024,-0.002,-0.0017,-0.0005,0,0,-0.0006,-0.0004,0,0,0,0,0,0,0,0,-0.0237,-0.0233,-0.021,-0.0207,-0.0203,-0.0158,-0.0149,-0.0115,-0.0125,-0.0152,-0.0124,-0.0123,-0.0065,-0.0058,-0.0046,-0.0,0.0004,-0.0005,-0.0003,-0.0002,-0.0001,0,0,0,0,0,0,0,-0.0239,-0.0236,-0.0211,-0.021,-0.0205,-0.0179,-0.0174,-0.0142,-0.0111,-0.015,-0.0147,-0.0143,-0.0063,-0.005,-0.0043,0.0006,-0.0006,-0.0002,-0.0,0.0001,0.008,0.008,0,0,0,0,0,0,-0.0253,-0.0238,-0.0213,-0.0209,-0.0221,-0.018,-0.0174,-0.0172,-0.0112,-0.0103,-0.0143,-0.0141,-0.0056,-0.0048,-0.004,-0.002,-0.0002,0.0002,0.0004,0.008,0.008,0.008,0,0,0,0,0,0,-0.0254,-0.0251,-0.0215,-0.0223,-0.0217,-0.018,-0.0178,-0.0171,-0.0158,-0.0107,-0.0097,-0.0138,-0.0055,-0.0045,-0.0013,-0.0015,0.0003,0.0006,0.008,0.008,0.008,0.0019,0,0,0,0,0,0,-0.0255,-0.0252,-0.0257,-0.0224,-0.0217,-0.0208,-0.0179,-0.017,-0.0157,-0.0153,-0.0099,-0.0089,-0.0054,-0.0018,-0.0009,-0.001,0.0009,0.008,0.008,0.008,0.0021,0.0017,0.0013,0,0,0,0,0,-0.0256,-0.0269,-0.0257,-0.0254,-0.0224,-0.0208,-0.0202,-0.0173,-0.0158,-0.0158,-0.0118,-0.0091,-0.0012,-0.0016,-0.0005,-0.0005,0.008,0.008,0.008,0.0023,0.0018,0.0013,0,0,0,0,0,0,-0.0285,-0.0264,-0.0251,-0.0256,-0.0237,-0.0201,-0.0199,-0.0179,-0.0148,-0.0142,-0.0092,-0.0079,-0.0053,-0.0021,-0.0025,0.0018,0.0039,0.0041,-0.0008,-0.0013,-0.0017,-0.0027,0.0012,0,0,0,0,0,-0.0295,-0.0298,-0.0271,-0.0275,-0.0269,-0.0234,-0.0224,-0.0205,-0.0174,-0.016,-0.0123,-0.0081,-0.0045,-0.0024,0.001,0.0034,0.0073,0.0042,0.0038,0.0034,0.0034,0.0089,0.009,0.0079,0.0079,0.0079,0,0,-0.0307,-0.0296,-0.0297,-0.0281,-0.0263,-0.0262,-0.0227,-0.0218,-0.0212,-0.0154,-0.0135,-0.0096,-0.0043,-0.0017,-0.0002,0.0011,0.0057,0.0034,0.003,0.0032,0.0089,0.009,0.0091,0.0079,0.0079,0.0079,0,0,-0.0338,-0.0323,-0.0337,-0.0327,-0.0308,-0.0285,-0.0286,-0.0255,-0.0235,-0.0213,-0.0169,-0.0131,-0.0082,-0.0041,-0.0014,-0.0018,0.0031,-0.001,-0.0033,0.002,0.0022,0.0023,0.0069,0.0076,-0.0008,-0.0008,-0.0008,0,-0.0354,-0.0366,-0.0339,-0.035,-0.0346,-0.0301,-0.0313,-0.0288,-0.0249,-0.0231,-0.0216,-0.0133,-0.0091,-0.0046,-0.0048,-0.0027,0.0008,-0.0021,0.0015,0.0017,0.002,0.0067,0.0075,-0.0011,-0.0011,-0.001,-0.001,0,-0.0394,-0.0403,-0.0411,-0.0408,-0.0399,-0.0402,-0.0367,-0.0351,-0.032,-0.0287,-0.0242,-0.0181,-0.0129,-0.0111,-0.008,-0.004,-0.002,-0.0001,0.0024,0.0018,0.0068,0.0077,-0.0015,-0.0014,-0.0013,-0.0013,0,0,-0.0433,-0.044,-0.0442,-0.0452,-0.0431,-0.0429,-0.0416,-0.0387,-0.0374,-0.0325,-0.0298,-0.0232,-0.0192,-0.0158,-0.0109,-0.0061,-0.0013,-0.0028,-0.0024,0.0012,0.0101,0.0125,0.0137,0.0012,0.0013,0.0014,0.0127,0,-0.0472,-0.0513,-0.0497,-0.0524,-0.054,-0.0498,-0.0489,-0.0455,-0.0411,-0.0372,-0.0294,-0.0251,-0.0211,-0.0184,-0.013,-0.0041,0.0009,-0.0045,0.0108,0.0112,0.0129,0.0148,0.0125,0.0224,0.0136,0.0137,0.0139,0,-0.0517,-0.0538,-0.0579,-0.0585,-0.0587,-0.0591,-0.0563,-0.0548,-0.0476,-0.0441,-0.0377,-0.0312,-0.0229,-0.0197,-0.0048,-0.0085,-0.0001,0.007,0.0076,0.0126,0.0153,0.0219,0.0244,0.0154,0.0153,0.0152,0.0151,0,-0.0565,-0.0592,-0.0628,-0.0632,-0.0631,-0.0634,-0.0623,-0.057,-0.0554,-0.0478,-0.0452,-0.0345,-0.0283,-0.017,-0.0025,-0.0034,0.0143,0.0151,0.0253,0.0256,0.0282,0.0284,0.0256,0.0256,0.0256,0.0255,0.0255,0,-0.0616,-0.0643,-0.0656,-0.0678,-0.0711,-0.0686,-0.0696,-0.0666,-0.0614,-0.0589,-0.0492,-0.0439,-0.0273,-0.0149,-0.003,0.0144,0.0144,0.0257,0.0291,0.0259,0.0258,0.0233,0.0229,0.026,0.0259,0.0258,0.0257,0,-0.0665,-0.0673,-0.0718,-0.0734,-0.074,-0.0763,-0.0757,-0.0756,-0.07,-0.0662,-0.0639,-0.0495,-0.0329,-0.0161,0.0044,0.0143,0.03,0.0361,0.0309,0.0335,0.0376,0.0368,0.0483,0.0485,0.0487,0.0488,0.0489,0,-0.0694,-0.0725,-0.0768,-0.0798,-0.0809,-0.0835,-0.0848,-0.0807,-0.0797,-0.069,-0.0671,-0.0502,-0.0369,-0.0066,0.0141,0.0362,0.0359,0.0461,0.0441,0.0381,0.0402,0.0391,0.0381,0.0452,0.0453,0.0453,0.0454,0,-0.0748,-0.0763,-0.0799,-0.0866,-0.0898,-0.0927,-0.0937,-0.0941,-0.0875,-0.0815,-0.0696,-0.0576,-0.0282,-0.0029,0.025,0.0373,0.0421,0.048,0.0453,0.039,0.0358,0.0377,0.0366,0.0459,0.0459,0.0458,0.0458,0.0458,-0.0779,-0.0821,-0.087,-0.0928,-0.0969,-0.1002,-0.1013,-0.0991,-0.0951,-0.0831,-0.0718,-0.0504,-0.0276,0.0137,0.0324,0.0501,0.0497,0.0542,0.0537,0.0532,0.0501,0.0473,0.0589,0.0589,0.059,0.059,0.059,0,-0.0815,-0.0861,-0.0926,-0.099,-0.1037,-0.1043,-0.1054,-0.1025,-0.0958,-0.0817,-0.0667,-0.0389,-0.0106,0.013,0.0414,0.0574,0.0555,0.0596,0.0537,0.0532,0.0527,0.0492,0.058,0.058,0.0581,0.0581,0,0,-0.0835,-0.0903,-0.0939,-0.1025,-0.1067,-0.1095,-0.1092,-0.1016,-0.0907,-0.0747,-0.0578,-0.0365,-0.0082,0.0112,0.0311,0.0457,0.0451,0.0469,0.0462,0.0364,0.0357,0.0483,0.0423,0,0,0,0,0]}],[{"header":{"parameterUnit":"m.s-1","parameterCategory":2,"la1":30.2991,"la2":30.254,"lo1":-89.0895,"lo2":-89.0444,"dy":0.0017,"dx":0.0017,"nx":28,"ny":28,"refTime":"2025-08-05T03:00:00:Z","depth":"4","parameterNumber":2,"parameterNumberName":"U-component_of_CURRENTS"},"data":[0,0,0,0,0,0,0,0,0,0,0,0,0,0,0,0,0,0,0,0,0,0,0,0,0,0,0,0,0,0,0,0,0,0,0,0,0,0,0,0,0,0,0,0,0,0,0,0,0,0,0,0,0,0,0,0,0,0,-0.1533,-0.1534,0,-0.1598,-0.1599,-0.16,-0.1634,-0.1634,-0.1634,-0.1635,-0.1692,-0.1694,-0.1695,0,0,0,0,0,0,0,0,0,0,0,0,0,-0.1443,-0.1445,-0.1533,-0.1534,-0.1535,-0.1598,-0.1599,-0.16,-0.1634,-0.1634,-0.1634,-0.1635,-0.1692,-0.1693,-0.1695,0,0,0,0,0,0,0,0,0,0,0,0,0,-0.1491,-0.1445,-0.1533,-0.1561,-0.1564,-0.1598,-0.1599,-0.16,-0.1634,-0.1634,-0.1634,-0.1635,-0.1691,-0.1693,-0.1695,-0.1702,0,0,-0.1702,-0.1702,0,0,0,0,0,0,0,0,-0.1489,-0.1494,-0.1556,-0.1559,-0.1563,-0.161,-0.1589,-0.1634,-0.1634,-0.1606,-0.1635,-0.1635,-0.1665,-0.1669,-0.1679,-0.1705,-0.1708,-0.1702,-0.1703,-0.1704,-0.1704,0,0,0,0,0,0,0,-0.1485,-0.1492,-0.1558,-0.1557,-0.1561,-0.1572,-0.1579,-0.1597,-0.1632,-0.1608,-0.1611,-0.1621,-0.1666,-0.1677,-0.168,-0.1708,-0.1702,-0.1703,-0.1705,-0.1706,-0.1806,-0.1807,0,0,0,0,0,0,-0.148,-0.1489,-0.1556,-0.156,-0.1527,-0.1573,-0.1581,-0.1593,-0.1632,-0.1638,-0.162,-0.1622,-0.1673,-0.1678,-0.1682,-0.1752,-0.1704,-0.1706,-0.1707,-0.1804,-0.1806,-0.1808,0,0,0,0,0,0,-0.1477,-0.1485,-0.1553,-0.1527,-0.1536,-0.1575,-0.1588,-0.1594,-0.1629,-0.1641,-0.1648,-0.1652,-0.1673,-0.168,-0.1724,-0.1752,-0.1707,-0.1709,-0.1803,-0.1805,-0.1807,-0.1854,0,0,0,0,0,0,-0.1475,-0.1484,-0.1503,-0.1526,-0.1538,-0.159,-0.1588,-0.1595,-0.1634,-0.1637,-0.167,-0.1674,-0.1674,-0.1721,-0.1726,-0.1754,-0.171,-0.1801,-0.1804,-0.1806,-0.1851,-0.1857,-0.1863,0,0,0,0,0,-0.1471,-0.1493,-0.1503,-0.1512,-0.1558,-0.1591,-0.1598,-0.1625,-0.1635,-0.1656,-0.1681,-0.1674,-0.1741,-0.1724,-0.173,-0.1759,-0.18,-0.1803,-0.1806,-0.1848,-0.1856,-0.1863,0,0,0,0,0,0,-0.1467,-0.1499,-0.1511,-0.1543,-0.1573,-0.1598,-0.1624,-0.164,-0.1677,-0.1688,-0.1695,-0.1701,-0.175,-0.175,-0.1731,-0.1796,-0.1769,-0.1773,-0.1799,-0.1807,-0.1813,-0.1805,-0.1712,0,0,0,0,0,-0.1473,-0.1498,-0.1528,-0.1557,-0.1573,-0.1603,-0.1625,-0.1645,-0.1674,-0.1692,-0.1715,-0.174,-0.1763,-0.1782,-0.1802,-0.184,-0.182,-0.1863,-0.1869,-0.1874,-0.1873,-0.187,-0.1875,-0.1818,-0.1818,-0.1818,0,0,-0.148,-0.1501,-0.1517,-0.1558,-0.1583,-0.1615,-0.1618,-0.166,-0.1692,-0.1692,-0.1751,-0.1766,-0.1779,-0.1822,-0.1843,-0.1829,-0.188,-0.1879,-0.1883,-0.1878,-0.1874,-0.1879,-0.1884,-0.1821,-0.182,-0.182,0,0,-0.1496,-0.1526,-0.155,-0.1578,-0.1622,-0.1642,-0.166,-0.1702,-0.1729,-0.1782,-0.1788,-0.1822,-0.1866,-0.1877,-0.1886,-0.194,-0.1913,-0.1953,-0.1981,-0.1979,-0.1983,-0.1986,-0.1961,-0.1962,-0.1956,-0.1956,-0.1956,0,-0.1505,-0.1537,-0.1563,-0.1594,-0.1621,-0.1657,-0.169,-0.1724,-0.1778,-0.18,-0.1809,-0.1872,-0.1888,-0.1925,-0.1947,-0.1954,-0.194,-0.195,-0.1985,-0.1988,-0.1991,-0.1965,-0.1965,-0.1959,-0.1959,-0.1958,-0.1958,0,-0.153,-0.1568,-0.1587,-0.1635,-0.1669,-0.1706,-0.175,-0.1793,-0.1831,-0.1857,-0.1913,-0.1935,-0.1966,-0.1983,-0.1985,-0.2018,-0.1997,-0.1992,-0.1961,-0.1999,-0.1969,-0.1969,-0.1963,-0.1962,-0.1961,-0.196,0,0,-0.1514,-0.1589,-0.1598,-0.1627,-0.1695,-0.1721,-0.1783,-0.1836,-0.1872,-0.1926,-0.1963,-0.2014,-0.2023,-0.2034,-0.2042,-0.2049,-0.2059,-0.2035,-0.2034,-0.2002,-0.2039,-0.1904,-0.189,-0.2061,-0.2062,-0.2062,-0.2007,0,-0.1526,-0.1582,-0.1622,-0.1683,-0.1714,-0.1769,-0.1818,-0.1873,-0.192,-0.1966,-0.1995,-0.2036,-0.2043,-0.2062,-0.2072,-0.2067,-0.2061,-0.2073,-0.2014,-0.2012,-0.188,-0.1886,-0.2063,-0.2007,-0.2007,-0.2006,-0.2006,0,-0.1528,-0.1567,-0.1626,-0.1701,-0.1721,-0.1767,-0.1843,-0.1894,-0.1962,-0.1996,-0.2039,-0.206,-0.2092,-0.2087,-0.2087,-0.2096,-0.2071,-0.2058,-0.2055,-0.191,-0.1875,-0.1964,-0.2004,-0.2005,-0.2005,-0.2005,-0.2005,0,-0.1481,-0.1567,-0.1613,-0.1641,-0.1733,-0.1774,-0.1827,-0.1903,-0.1941,-0.2015,-0.2038,-0.2081,-0.2097,-0.2091,-0.2073,-0.2085,-0.2048,-0.2055,-0.1904,-0.1894,-0.2012,-0.2009,-0.2037,-0.2037,-0.2037,-0.2037,-0.2038,0,-0.1457,-0.1498,-0.16,-0.1623,-0.168,-0.1756,-0.1817,-0.1876,-0.1947,-0.1973,-0.2048,-0.2053,-0.2101,-0.2087,-0.207,-0.1971,-0.2041,-0.1896,-0.1868,-0.2033,-0.2033,-0.201,-0.2008,-0.2035,-0.2036,-0.2036,-0.2037,0,-0.139,-0.1461,-0.1517,-0.1622,-0.1658,-0.1699,-0.1801,-0.183,-0.1918,-0.195,-0.1971,-0.2033,-0.201,-0.2022,-0.2,-0.194,-0.1878,-0.1823,-0.198,-0.1965,-0.1727,-0.1728,-0.1647,-0.1642,-0.1638,-0.1634,-0.1631,0,-0.1356,-0.138,-0.1497,-0.1527,-0.1578,-0.1652,-0.169,-0.1798,-0.1821,-0.1909,-0.1898,-0.1921,-0.194,-0.1787,-0.183,-0.1763,-0.1745,-0.1703,-0.1732,-0.1705,-0.1687,-0.1695,-0.1702,-0.1624,-0.1622,-0.1621,-0.162,0,-0.1283,-0.1338,-0.1382,-0.1442,-0.1494,-0.1542,-0.1606,-0.1607,-0.171,-0.1809,-0.1763,-0.1741,-0.1704,-0.1681,-0.1633,-0.1596,-0.1731,-0.1656,-0.1666,-0.1693,-0.1675,-0.1663,-0.1676,-0.1605,-0.1607,-0.1608,-0.1609,0,-0.1225,-0.1235,-0.1296,-0.1333,-0.1395,-0.1398,-0.1454,-0.1466,-0.1502,-0.1605,-0.1581,-0.161,-0.1674,-0.159,-0.1551,-0.1498,-0.1483,-0.1442,-0.1463,-0.1481,-0.1453,-0.1408,-0.1217,0,0,0,0,0,-0.1156,-0.1148,-0.1176,-0.1207,-0.1262,-0.1293,-0.1376,-0.1432,-0.1532,-0.1451,-0.1512,-0.1469,-0.1414,-0.1436,-0.1343,-0.1479,-0.1492,-0.1367,-0.1458,-0.1518,-0.1536,-0.1521,0,0,0,0,0,0,-0.1108,-0.113,-0.1132,-0.1087,-0.1081,-0.1122,-0.1167,-0.124,-0.1205,-0.1314,-0.1285,-0.1374,-0.1337,-0.143,-0.1308,-0.1314,-0.1339,-0.14,-0.1395,-0.1508,-0.1525,-0.1539,-0.1529,0,0,0,0,0]},{"header":{"parameterUnit":"m.s-1","parameterCategory":2,"la1":30.2991,"la2":30.254,"lo1":-89.0895,"lo2":-89.0444,"dy":0.0017,"dx":0.0017,"nx":28,"ny":28,"refTime":"2025-08-05T03:00:00:Z","depth":"4","parameterNumber":3,"parameterNumberName":"V-component_of_CURRENTS"},"data":[0,0,0,0,0,0,0,0,0,0,0,0,0,0,0,0,0,0,0,0,0,0,0,0,0,0,0,0,0,0,0,0,0,0,0,0,0,0,0,0,0,0,0,0,0,0,0,0,0,0,0,0,0,0,0,0,0,0,-0.0174,-0.0173,0,-0.0134,-0.0133,-0.0133,-0.0101,-0.01,-0.01,-0.01,-0.0022,-0.002,-0.0018,0,0,0,0,0,0,0,0,0,0,0,0,0,-0.0192,-0.0192,-0.0174,-0.0173,-0.0173,-0.0134,-0.0133,-0.0133,-0.0101,-0.01,-0.01,-0.01,-0.0023,-0.002,-0.0018,0,0,0,0,0,0,0,0,0,0,0,0,0,-0.017,-0.0192,-0.0174,-0.0153,-0.0151,-0.0134,-0.0133,-0.0132,-0.0101,-0.01,-0.01,-0.01,-0.0023,-0.0021,-0.0018,-0.0006,0,0,-0.0009,-0.0008,0,0,0,0,0,0,0,0,-0.0171,-0.0169,-0.0157,-0.0155,-0.0152,-0.0123,-0.0111,-0.0089,-0.0101,-0.0118,-0.01,-0.01,-0.0053,-0.0048,-0.004,-0.0003,0.0001,-0.0009,-0.0007,-0.0006,-0.0005,0,0,0,0,0,0,0,-0.0173,-0.0171,-0.0157,-0.0156,-0.0154,-0.0136,-0.0132,-0.0107,-0.0086,-0.0117,-0.0115,-0.0113,-0.0052,-0.0043,-0.0038,0.0002,-0.0009,-0.0006,-0.0005,-0.0004,0.0061,0.0061,0,0,0,0,0,0,-0.0183,-0.0172,-0.0158,-0.0155,-0.0163,-0.0136,-0.0132,-0.0132,-0.0087,-0.0081,-0.0113,-0.0111,-0.0048,-0.0041,-0.0035,-0.0018,-0.0006,-0.0003,-0.0002,0.0061,0.0061,0.0061,0,0,0,0,0,0,-0.0183,-0.0182,-0.0159,-0.0164,-0.016,-0.0136,-0.0136,-0.0131,-0.0124,-0.0085,-0.0078,-0.0111,-0.0047,-0.0039,-0.0014,-0.0015,-0.0002,0.0001,0.0061,0.0061,0.0061,0.0016,0,0,0,0,0,0,-0.0184,-0.0182,-0.0187,-0.0165,-0.016,-0.0156,-0.0136,-0.0131,-0.0124,-0.0121,-0.0081,-0.0073,-0.0046,-0.0019,-0.0011,-0.001,0.0003,0.0061,0.0061,0.0061,0.0017,0.0014,0.0011,0,0,0,0,0,-0.0185,-0.0194,-0.0188,-0.0186,-0.0167,-0.0156,-0.0152,-0.0133,-0.0124,-0.0125,-0.0096,-0.0075,-0.0013,-0.0016,-0.0008,-0.0006,0.0061,0.0061,0.0061,0.0018,0.0015,0.0011,0,0,0,0,0,0,-0.0204,-0.0191,-0.0184,-0.0189,-0.0176,-0.0151,-0.0152,-0.0138,-0.0116,-0.0113,-0.0075,-0.0065,-0.0044,-0.0019,-0.0024,0.0013,0.0028,0.003,-0.0008,-0.0011,-0.0014,-0.0023,0.0005,0,0,0,0,0,-0.0212,-0.0216,-0.0198,-0.0203,-0.0199,-0.0176,-0.017,-0.0158,-0.0135,-0.0126,-0.0098,-0.0066,-0.0037,-0.002,0.0006,0.0027,0.0056,0.0034,0.0031,0.0028,0.0027,0.0074,0.0075,0.0062,0.0062,0.0062,0,0,-0.0221,-0.0214,-0.0217,-0.0207,-0.0196,-0.0196,-0.0172,-0.0167,-0.0164,-0.012,-0.0108,-0.0077,-0.0035,-0.0013,-0.0001,0.0008,0.0046,0.0029,0.0026,0.0026,0.0074,0.0075,0.0077,0.0062,0.0062,0.0062,0,0,-0.0243,-0.0236,-0.0247,-0.0241,-0.023,-0.0215,-0.0216,-0.0195,-0.0182,-0.0167,-0.0133,-0.0102,-0.0064,-0.003,-0.0008,-0.001,0.0027,-0.0003,-0.002,0.0025,0.0026,0.0028,0.0059,0.0064,-0.0001,-0.0001,-0.0001,0,-0.0255,-0.0266,-0.0248,-0.0257,-0.0257,-0.0227,-0.0238,-0.0219,-0.0192,-0.0181,-0.017,-0.0105,-0.007,-0.0033,-0.0033,-0.0016,0.001,-0.0013,0.0021,0.0023,0.0026,0.0057,0.0063,-0.0003,-0.0003,-0.0003,-0.0002,0,-0.0284,-0.0294,-0.03,-0.0301,-0.0297,-0.0302,-0.0278,-0.0268,-0.0249,-0.0225,-0.0191,-0.014,-0.0101,-0.0083,-0.0057,-0.0022,-0.0011,0.0008,0.0027,0.0024,0.0057,0.0064,-0.0006,-0.0005,-0.0005,-0.0004,0,0,-0.0309,-0.032,-0.0323,-0.0336,-0.0323,-0.0325,-0.0317,-0.03,-0.0295,-0.0255,-0.0239,-0.0181,-0.015,-0.0123,-0.0082,-0.0039,0.0001,-0.0012,-0.0009,0.0013,0.0091,0.0078,0.0085,0.0025,0.0026,0.0027,0.0103,0,-0.0338,-0.0372,-0.0364,-0.0391,-0.0406,-0.038,-0.0377,-0.0355,-0.0326,-0.0301,-0.0236,-0.0205,-0.0165,-0.0146,-0.0097,-0.0024,0.0018,-0.0022,0.0094,0.0098,0.0083,0.0092,0.0031,0.0109,0.0111,0.0112,0.0113,0,-0.0369,-0.0389,-0.0427,-0.0443,-0.0447,-0.0456,-0.0447,-0.0439,-0.0389,-0.0365,-0.0315,-0.0263,-0.0193,-0.0161,-0.0036,-0.0065,0.0006,0.0065,0.007,0.008,0.0098,0.0116,0.0126,0.0125,0.0124,0.0123,0.0122,0,-0.0402,-0.0432,-0.0466,-0.0473,-0.0483,-0.0494,-0.0493,-0.0462,-0.0456,-0.0403,-0.0388,-0.0298,-0.0252,-0.0151,-0.0029,-0.0031,0.0108,0.0122,0.0179,0.0179,0.0187,0.0185,0.0212,0.0212,0.0212,0.0211,0.0211,0,-0.0435,-0.0463,-0.049,-0.0511,-0.0551,-0.0539,-0.0563,-0.0545,-0.0516,-0.0505,-0.0425,-0.0388,-0.0246,-0.0147,-0.004,0.0088,0.0103,0.0177,0.0201,0.0165,0.0159,0.0192,0.0189,0.0214,0.0214,0.0213,0.0213,0,-0.0463,-0.048,-0.0527,-0.0558,-0.0572,-0.06,-0.062,-0.0628,-0.0595,-0.0576,-0.056,-0.0449,-0.0319,-0.0177,-0.0006,0.0069,0.0195,0.0239,0.018,0.0199,0.0237,0.023,0.0303,0.0303,0.0303,0.0304,0.0304,0,-0.0479,-0.0507,-0.0569,-0.0605,-0.0624,-0.0664,-0.0687,-0.0672,-0.0671,-0.0606,-0.0593,-0.047,-0.0382,-0.0149,-0.0007,0.0188,0.0218,0.027,0.0262,0.0232,0.0248,0.0241,0.0234,0.0304,0.0304,0.0304,0.0304,0,-0.0509,-0.0536,-0.0574,-0.0651,-0.0695,-0.0736,-0.0762,-0.0767,-0.0732,-0.0708,-0.0602,-0.0473,-0.0326,-0.0145,0.0005,0.0145,0.0227,0.0273,0.0274,0.0267,0.0234,0.0248,0.0241,0.0305,0.0305,0.0305,0.0305,0,-0.0529,-0.0567,-0.0624,-0.0685,-0.0746,-0.0783,-0.0796,-0.0776,-0.0762,-0.068,-0.0644,-0.0474,-0.0371,-0.0167,-0.0027,0.0105,0.0138,0.0172,0.0178,0.0179,0.0118,0.0057,0.0096,0,0,0,0,0,-0.0543,-0.0586,-0.0651,-0.0717,-0.0777,-0.0806,-0.0831,-0.0829,-0.0797,-0.0725,-0.0679,-0.0534,-0.0307,-0.0206,-0.0073,-0.0039,0.0143,0.0117,0.018,0.0309,0.0308,0.0257,0,0,0,0,0,0,-0.0553,-0.0617,-0.0651,-0.0725,-0.0771,-0.0826,-0.0841,-0.0821,-0.077,-0.0718,-0.0591,-0.0515,-0.0293,-0.0378,-0.0072,-0.0033,0.0021,0.0227,0.023,0.031,0.0309,0.0308,0.0255,0,0,0,0,0]}]]